Weather History for Caldwell, NJ

Change the Weather History Date:

Sunday, May 19, 2013

  Actual Average Record
Temperature  
Mean Temperature 56 °F -  
Max Temperature 57 °F 72 °F 93 °F (1962)
Min Temperature 55 °F 48 °F 33 °F (1983)
Degree Days  
Heating Degree Days 9    
Growing Degree Days 6 (Base 50)    
Moisture  
Dew Point 56 °F    
Average Humidity 97    
Maximum Humidity 100    
Minimum Humidity 84    
Precipitation  
Precipitation 0.23 in - - ()
Sea Level Pressure  
Sea Level Pressure 30.27 in    
Wind  
Wind Speed 3 mph (SE)    
Max Wind Speed 12 mph    
Max Gust Speed 17 mph    
Visibility 3 miles    
Events Rain    
Averages and records for this station are not official NWS values.
T = Trace of Precipitation, MM = Missing Value Source: NWS Daily Summary

Daily Weather History Graph

Daily Weather History Graph

Search for Another Location

Airport:

Trip Planner

Search our weather history database for the weather conditions in past years. The results will help you decide how hot, cold, wet, or windy it might be!

Date:

Astronomy

May. 19, 2013 Rise Set
Actual Time 5:35 AM EDT 8:11 PM EDT
Civil Twilight 5:04 AM EDT 8:43 PM EDT
Nautical Twilight 4:24 AM EDT 9:23 PM EDT
Astronomical Twilight 3:40 AM EDT 10:07 PM EDT
Moon 2:11 PM EDT (5/19) 2:00 AM EDT (5/19)
Length of Visible Light 15h 39m
Length of Day
14h 36m
Waxing Gibbous, 65% of the Moon is Illuminated
May 19
Waxing Gibbous
May 25
Full
May 31
Last Quarter
Jun 8
New
Jun 16
First Quarter

Hourly Weather History & Observations

Time (EDT) Temp. Dew Point Humidity Pressure Visibility Wind Dir Wind Speed Gust Speed Precip Events Conditions
12:44 AM 57.2 °F 53.6 °F 88% 30.30 in 10.0 mi Calm Calm - N/A   Overcast
12:53 AM 57.0 °F 54.0 °F 89% 30.32 in 10.0 mi Calm Calm - N/A   Overcast
1:53 AM 57.9 °F 53.1 °F 84% 30.31 in 10.0 mi Calm Calm - 0.00 in   Overcast
2:25 AM 55.4 °F 55.4 °F 100% 30.29 in 4.0 mi Calm Calm - 0.01 in Rain Light Rain
2:53 AM 55.9 °F 55.0 °F 97% 30.30 in 9.0 mi Calm Calm - 0.01 in   Overcast
3:53 AM 55.9 °F 55.0 °F 97% 30.30 in 4.0 mi Calm Calm - 0.02 in Rain Light Rain
4:22 AM 55.4 °F 55.4 °F 100% 30.28 in 6.0 mi South 6.9 mph - 0.01 in Rain Light Rain
4:53 AM 55.0 °F 54.0 °F 96% 30.30 in 7.0 mi Calm Calm - 0.02 in Rain Light Rain
6:46 AM 55.4 °F 53.6 °F 94% 30.30 in 2.5 mi SSE 3.5 mph - 0.00 in Rain Light Rain
6:53 AM 55.0 °F 55.0 °F 100% 30.32 in 2.5 mi Calm Calm - 0.01 in Rain Light Rain
7:02 AM 55.4 °F 55.4 °F 100% 30.30 in 3.0 mi Variable 3.5 mph - 0.00 in Rain Light Rain
7:29 AM 55.4 °F 55.4 °F 100% 30.30 in 2.5 mi South 3.5 mph - 0.01 in Rain Light Rain
8:53 AM 55.9 °F 55.0 °F 97% 30.33 in 1.5 mi Calm Calm - 0.02 in Rain Light Rain
9:42 AM 55.4 °F 55.4 °F 100% 30.32 in 2.0 mi SE 6.9 mph - 0.02 in Rain Light Rain
9:53 AM 57.0 °F 55.9 °F 96% 30.34 in 3.0 mi SSE 5.8 mph - 0.02 in Rain Light Rain
10:11 AM 57.2 °F 55.4 °F 94% 30.32 in 2.5 mi SE 5.8 mph - 0.00 in Rain Light Rain
10:18 AM 57.2 °F 55.4 °F 94% 30.32 in 3.0 mi SE 6.9 mph - 0.00 in Rain Light Rain
10:29 AM 57.2 °F 55.4 °F 94% 30.31 in 2.5 mi South 9.2 mph 16.1 mph 0.01 in Rain Light Rain
10:53 AM 57.0 °F 55.9 °F 96% 30.33 in 3.0 mi SSE 8.1 mph - 0.01 in Rain Light Rain
11:53 AM 57.0 °F 55.9 °F 96% 30.33 in 3.0 mi SE 5.8 mph - 0.01 in   Overcast
12:14 PM 57.2 °F 55.4 °F 94% 30.30 in 4.0 mi Variable 4.6 mph - 0.00 in   Overcast
12:23 PM 57.2 °F 55.4 °F 94% 30.30 in 3.0 mi South 11.5 mph 17.3 mph 0.01 in Rain Light Rain
12:36 PM 57.2 °F 55.4 °F 94% 30.30 in 3.0 mi SE 6.9 mph - 0.01 in Rain Light Rain
12:53 PM 57.0 °F 55.9 °F 96% 30.31 in 2.5 mi SSE 8.1 mph - 0.01 in Rain Light Rain
1:01 PM 57.2 °F 55.4 °F 94% 30.29 in 1.8 mi ESE 9.2 mph - 0.01 in Rain Light Rain
1:53 PM 57.9 °F 57.0 °F 97% 30.30 in 1.5 mi SSE 6.9 mph - 0.06 in Rain Light Rain
2:44 PM 57.2 °F 55.4 °F 94% 30.27 in 2.0 mi SE 5.8 mph - 0.02 in Rain Light Rain
3:53 PM 57.0 °F 55.9 °F 96% 30.25 in 2.0 mi SSE 5.8 mph - 0.00 in Rain Light Rain
4:21 PM 57.2 °F 55.4 °F 94% 30.23 in 1.8 mi SE 3.5 mph - 0.01 in Rain Light Rain
4:48 PM 57.2 °F 55.4 °F 94% 30.23 in 2.5 mi SE 4.6 mph - 0.01 in   Overcast
5:15 PM 57.2 °F 55.4 °F 94% 30.22 in 1.8 mi Calm Calm - 0.01 in   Overcast
5:53 PM 57.0 °F 57.0 °F 100% 30.24 in 1.8 mi ENE 3.5 mph - 0.01 in   Overcast
6:39 PM 57.2 °F 57.2 °F 100% 30.22 in 2.0 mi Calm Calm - 0.01 in   Overcast
6:48 PM 57.2 °F 57.2 °F 100% 30.22 in 1.8 mi Calm Calm - 0.01 in   Overcast
6:53 PM 57.0 °F 57.0 °F 100% 30.24 in 2.0 mi Calm Calm - 0.01 in   Overcast
7:11 PM 57.2 °F 57.2 °F 100% 30.22 in 3.0 mi NE 3.5 mph - N/A   Overcast
7:30 PM 57.2 °F 57.2 °F 100% 30.22 in 2.0 mi NE 3.5 mph - 0.00 in Rain Light Rain
7:44 PM 57.2 °F 57.2 °F 100% 30.22 in 1.2 mi Calm Calm - 0.01 in Rain Light Rain
7:53 PM 57.0 °F 57.0 °F 100% 30.23 in 1.2 mi Calm Calm - 0.02 in Rain Light Rain
8:17 PM 57.2 °F 57.2 °F 100% 30.20 in 2.5 mi ESE 3.5 mph - 0.00 in   Overcast
8:24 PM 57.2 °F 57.2 °F 100% 30.20 in 3.0 mi ESE 3.5 mph - 0.00 in   Overcast
8:53 PM 57.0 °F 57.0 °F 100% 30.21 in 4.0 mi Calm Calm - 0.00 in   Overcast
9:53 PM 57.0 °F 57.0 °F 100% 30.21 in 5.0 mi East 5.8 mph - N/A   Overcast
10:24 PM 57.2 °F 57.2 °F 100% 30.20 in 2.5 mi East 5.8 mph - N/A   Overcast
10:39 PM 57.2 °F 57.2 °F 100% 30.20 in 3.0 mi East 5.8 mph - N/A   Overcast
10:50 PM 57.2 °F 57.2 °F 100% 30.20 in 2.5 mi East 3.5 mph - N/A   Overcast
10:53 PM 57.0 °F 57.0 °F 100% 30.22 in 2.5 mi Calm Calm - N/A   Overcast
11:10 PM 57.2 °F 57.2 °F 100% 30.20 in 1.8 mi ENE 3.5 mph - N/A   Overcast